Weather in Urdoma

Russia / Arkhangel'skaya Oblast'     61°45′31″N   48°32′25″E
temp.,
°C
wind,
m/s
gust,
m/s
humid.,
%
clouds,
%
prec.,
mm/h
press.,
hPa
HPBL,
m
11 april, sun
sun1100:000s413914 0.0 1024384
03:000s412915 0.0 1023372
06:00+1s4148719 0.0 1021440
09:00+5sw5137868 0.0 1021772
12:00+5wsw5107973 0.3 10231299
15:00+7wsw49665 0.4 10251460
18:00+4wsw39740 0.0 1026251
21:00+2sw414800 0.0 1028517
12 april, mon
mon1200:00+2wsw414815 0.0 1030630
03:000wsw39885 0.0 1033298
06:000wsw311915 0.0 1035408
09:00+5wsw48665 0.0 1036627
12:00+8wsw47475 0.0 10371171
15:00+9wsw364462 0.0 10371249
18:00+6ssw386669 0.0 1036211
21:00+4ssw413767 0.0 1035372
13 april, tue
tue1300:00+3ssw4137973 0.0 1034329
03:00+2ssw3129164 0.0 1034283
06:00+3ssw31193100 0.0 1033333
09:00+7ssw41278100 0.0 1031501
12:00+9ssw41078100 0.0 1028620
15:00+11ssw51278100 0.0 1025872
18:00+11sw51284100 0.0 1024860
21:00+9sw31294100 0.0 1024460
14 april, wed
wed1400:00+9ssw31096100 0.0 1023327
03:00+8ssw3996100 0.0 1023298
06:00+8ssw31095100 0.0 1022324
09:00+10ssw41184100 0.0 1021472
12:00+14sw41065100 0.0 1019883
15:00+16sw51257100 0.0 10171556
18:00+14sw5125795 0.0 1016904
21:00+9nnw4788100 0.1 1018441
15 april, thu
thu1500:00+5nw3886100 1.3 1020652
03:00+3wnw2495100 4.1 1021478
06:00+4w2487100 1.8 1022406
09:00+5n2265100 2.0 1022921
12:00+6n2255100 0.0 10221274
15:00+6n2254100 0.1 10221260
18:00+5nw1165100 0.1 102111
21:00+4nnw2274100 0.2 102137